Regional Weather Roundup
Issued by NWS

Home | Current Version | Previous Version | Graphics & Text | Print | Product List | Glossary On
Versions: 1 2 3 4 5 6 7 8 9 10 11 12 13 14 15 16 17 18 19 20 21 22 23 24 25 26 27 28 29 30 31 32 33 34 35 36 37 38 39 40 41 42 43 44 45 46 47 48 49 50
000
ASUS43 KFSD 271202
RWRSD

WEATHER ROUNDUP FOR SOUTH DAKOTA
NATIONAL WEATHER SERVICE SIOUX FALLS SD
700 AM CDT THU AUG 27 2015

NOTE: "FAIR" INDICATES FEW OR NO CLOUDS BELOW 12,000 FEET WITH NO
SIGNIFICANT WEATHER AND/OR OBSTRUCTIONS TO VISIBILITY.


SDZ001>005-009-010-012>017-271300-
NORTHWEST AND NORTH CENTRAL SOUTH DAKOTA

CITY           SKY/WX    TMP DP  RH WIND       PRES   REMARKS
BUFFALO          N/A     64  60  87 S7        29.94R
MOBRIDGE       CLOUDY    64  64 100 E14       29.92R
$$

SDZ012>016-024>037-041>051-057-063-072>074-271300-
SOUTHWEST AND SOUTH CENTRAL SOUTH DAKOTA

CITY           SKY/WX    TMP DP  RH WIND       PRES   REMARKS
RAPID CTY ARPT CLOUDY    63  58  83 E3        30.03R
PIERRE         CLOUDY    67  63  87 SW6       29.89F
CUSTER         CLOUDY    57  54  89 SW6       30.14S
ELLSWORTH AFB  CLOUDY    65  59  82 S7        30.02R
PHILIP         CLOUDY    63  60  90 S5        29.94S
PINE RIDGE     CLOUDY    64  56  75 NE6       29.98S
WINNER         FAIR      70  66  87 CALM      29.93R
$$

SDZ004>011-016>023-039-040-271300-
NORTHEAST SOUTH DAKOTA

CITY           SKY/WX    TMP DP  RH WIND       PRES   REMARKS
ABERDEEN       CLOUDY    63  61  93 SE6       29.97F
WATERTOWN      CLOUDY    62  60  93 S8        30.04S
BROOKINGS      CLOUDY    61  57  88 S5        30.07S
$$

SDZ017-020-022-023-036>040-048>070-271300-
SOUTHEAST SOUTH DAKOTA

CITY           SKY/WX    TMP DP  RH WIND       PRES   REMARKS
SIOUX FALLS    CLOUDY    64  60  87 SW5       30.06R THUNDER
HURON          LGT RAIN  64  63  96 E23G30    29.86F
CHAMBERLAIN    CLOUDY    66  65  96 E10G18    29.91F
MITCHELL       CLOUDY    69  65  86 E17       29.89F
YANKTON        CLOUDY    63  61  94 E13       29.98F
$$

ABBREVIATIONS USED IN REMARKS
   TC - TEMPERATURE IN CELSIUS
  WCI - WIND CHILL INDEX
   HX - HEAT INDEX
  VSB - VISIBILITY



USA.gov is the U.S. government's official web portal to all federal, state and local government web resources and services.